KD8ILV Weather Reports


Display with metric or nautical units.
time (UTC)temp
F
wind
direction
speed
MPH
gust
MPH
rain 1hr
in
rain 24hr
in
rain mn
in
humidity
%
barometer
mb
20260505085553 62 0 0.0 0.0 0.00 0.00 0.00 67 1009.4
20260505085053 62 0 0.0 0.0 0.00 0.00 0.00 67 1009.2
20260505084613 62 0 0.0 0.0 0.00 0.00 0.00 67 1009.1
20260505084052 62 0 0.0 1.0 0.00 0.00 0.00 67 1009.1
20260505083555 62 0 0.0 1.0 0.00 0.00 0.00 67 1009.0
20260505083107 62 0 0.0 0.0 0.00 0.00 0.00 67 1008.9
20260505082552 62 0 0.0 0.0 0.00 0.00 0.00 67 1008.8
20260505082052 62 0 0.0 0.0 0.00 0.00 0.00 67 1008.7
20260505081601 62 0 0.0 0.0 0.00 0.00 0.00 66 1008.7
20260505081052 62 0 0.0 1.0 0.00 0.00 0.00 66 1008.5
20260505080552 63 0 0.0 1.0 0.00 0.00 0.00 66 1008.4
20260505080105 63 0 0.0 0.0 0.00 0.00 0.00 65 1008.3
20260505075552 63 0 0.0 0.0 0.00 0.00 0.00 65 1008.5
20260505075053 63 0 0.0 0.0 0.00 0.00 0.00 64 1008.6
20260505074603 63 0 0.0 2.0 0.00 0.00 0.00 65 1008.6
20260505074053 63 0 0.0 2.0 0.00 0.00 0.00 64 1008.5
20260505073553 63 0 0.0 2.0 0.00 0.00 0.00 64 1008.5
20260505073101 63 156 0.0 2.0 0.00 0.00 0.00 64 1008.4
20260505072556 63 0 0.0 2.0 0.00 0.00 0.00 64 1008.3
20260505072054 63 0 0.0 1.0 0.00 0.00 0.00 64 1008.1
20260505071613 64 0 0.0 2.0 0.00 0.00 0.00 64 1008.1
20260505071056 64 0 0.0 2.0 0.00 0.00 0.00 63 1008.0
20260505070553 64 0 0.0 3.0 0.00 0.00 0.00 63 1008.1
20260505070059 64 0 0.0 9.0 0.00 0.00 0.00 63 1008.1
20260505065552 64 75 0.0 9.0 0.00 0.00 0.00 63 1008.1
20260505065051 64 0 1.0 9.0 0.00 0.00 0.00 63 1008.2
20260505064605 64 0 0.0 1.0 0.00 0.00 0.00 64 1008.2
20260505064055 64 217 0.0 1.0 0.00 0.00 0.00 64 1008.1
20260505063555 64 221 0.0 4.0 0.00 0.00 0.00 63 1008.2
20260505063100 64 200 0.0 4.0 0.00 0.00 0.00 63 1008.2
20260505062553 64 9 0.0 3.0 0.00 0.00 0.00 62 1008.1
20260505062051 64 49 0.0 4.0 0.00 0.00 0.00 63 1008.2
20260505061609 64 0 0.0 4.0 0.00 0.00 0.00 63 1008.3
20260505061052 64 30 0.0 3.0 0.00 0.00 0.00 63 1008.1
20260505060552 65 56 0.0 5.0 0.00 0.00 0.00 62 1008.2
20260505060105 65 122 1.0 5.0 0.00 0.00 0.00 62 1008.1
20260505055552 65 77 0.0 3.0 0.00 0.00 0.00 62 1008.0
20260505055055 65 239 0.0 3.0 0.00 0.00 0.00 61 1007.8
20260505054556 65 0 0.0 3.0 0.00 0.00 0.00 60 1007.8
20260505054052 65 219 0.0 3.0 0.00 0.00 0.00 60 1007.6
20260505053552 65 301 0.0 7.0 0.00 0.00 0.00 60 1007.7
20260505053100 65 0 0.0 7.0 0.00 0.00 0.00 60 1007.6
20260505052553 66 0 1.0 7.0 0.00 0.00 0.00 60 1007.5
20260505052052 66 165 0.0 2.0 0.00 0.00 0.00 60 1007.5
20260505051558 66 126 0.0 2.0 0.00 0.00 0.00 60 1007.5
20260505051053 66 121 0.0 1.0 0.00 0.00 0.00 61 1007.5
20260505050553 66 76 0.0 2.0 0.00 0.00 0.00 61 1007.6
20260505041606 66 226 0.0 3.0 0.00 0.00 0.00 62 1008.1
20260505041052 66 248 0.0 4.0 0.00 0.00 0.00 62 1008.2
20260505040552 66 20 0.0 4.0 0.00 0.00 0.00 62 1008.1
20260505040110 66 0 1.0 4.0 0.00 0.00 0.00 62 1008.2
20260505035552 66 210 0.0 3.0 0.00 0.00 0.00 62 1008.3
20260505035052 66 0 0.0 3.0 0.00 0.00 0.00 63 1008.3
20260505034601 66 0 0.0 2.0 0.00 0.00 0.00 64 1008.3
20260505034052 66 0 0.0 2.0 0.00 0.00 0.00 63 1008.3
20260505033552 66 0 0.0 2.0 0.00 0.00 0.00 64 1008.3
20260505033100 66 15 0.0 3.0 0.00 0.00 0.00 62 1008.3
20260505032551 66 0 0.0 3.0 0.00 0.00 0.00 62 1008.2
20260505032052 66 274 0.0 1.0 0.00 0.00 0.00 62 1008.2
20260505031553 66 0 0.0 1.0 0.00 0.00 0.00 62 1008.2
20260505031052 66 0 0.0 1.0 0.00 0.00 0.00 63 1008.2
20260505030554 66 0 0.0 3.0 0.00 0.00 0.00 63 1008.2
20260505030110 66 0 0.0 3.0 0.00 0.00 0.00 62 1008.1
20260505025553 66 0 0.0 3.0 0.00 0.00 0.00 62 1008.1
20260505025051 66 0 0.0 3.0 0.00 0.00 0.00 62 1008.0
20260505024559 66 221 0.0 2.0 0.00 0.00 0.00 62 1007.8
20260505024052 66 264 0.0 2.0 0.00 0.00 0.00 62 1007.8
20260505023552 67 0 0.0 4.0 0.00 0.00 0.00 62 1007.8
20260505023055 67 0 1.0 4.0 0.00 0.00 0.00 61 1007.8
20260505022552 66 0 0.0 3.0 0.00 0.00 0.00 62 1007.8
20260505022054 66 63 0.0 3.0 0.00 0.00 0.00 62 1007.6
20260505021553 66 0 0.0 3.0 0.00 0.00 0.00 62 1007.5
20260505021051 66 0 0.0 3.0 0.00 0.00 0.00 62 1007.5
20260505020552 66 53 0.0 2.0 0.00 0.00 0.00 62 1007.4
20260505020054 67 0 0.0 2.0 0.00 0.00 0.00 62 1007.4
20260505015551 67 0 0.0 2.0 0.00 0.00 0.00 62 1007.2
20260505015052 67 0 0.0 1.0 0.00 0.00 0.00 63 1007.1
20260505014610 67 0 0.0 1.0 0.00 0.00 0.00 61 1007.1
20260505014055 67 0 0.0 1.0 0.00 0.00 0.00 61 1006.9
20260505013552 67 0 0.0 1.0 0.00 0.00 0.00 61 1007.0
20260505013056 67 0 0.0 1.0 0.00 0.00 0.00 61 1007.0
20260505012550 67 0 0.0 1.0 0.00 0.00 0.00 61 1007.0
20260505012052 67 0 0.0 1.0 0.00 0.00 0.00 61 1006.9
20260505011557 67 0 0.0 1.0 0.00 0.00 0.00 61 1006.9
20260505011054 67 0 0.0 1.0 0.00 0.00 0.00 61 1006.9
20260505010551 67 0 0.0 1.0 0.00 0.00 0.00 60 1006.8
20260505005556 68 55 0.0 1.0 0.00 0.00 0.00 60 1006.8
20260505005053 68 0 0.0 1.0 0.00 0.00 0.00 59 1006.8
20260505004557 68 0 0.0 1.0 0.00 0.00 0.00 58 1006.9
20260505004056 69 0 0.0 1.0 0.00 0.00 0.00 58 1006.9
20260505003554 69 0 0.0 2.0 0.00 0.00 0.00 57 1006.8
20260505003100 69 0 0.0 2.0 0.00 0.00 0.00 57 1006.8
20260505002550 69 0 0.0 1.0 0.00 0.00 0.00 57 1006.8
20260505002050 70 0 0.0 3.0 0.00 0.00 0.00 57 1006.9
20260505001558 70 59 0.0 3.0 0.00 0.00 0.00 56 1006.9
20260505001051 70 191 0.0 3.0 0.00 0.00 0.00 56 1006.9
20260505000552 70 0 0.0 0.0 0.00 0.00 0.00 56 1007.0
20260505000058 70 0 0.0 2.0 0.00 0.00 0.00 55 1007.0
20260504235552 71 0 0.0 2.0 0.00 0.00 0.00 55 1007.1
20260504235051 71 55 0.0 2.0 0.00 0.00 0.00 54 1007.1
20260504234552 71 0 0.0 2.0 0.00 0.00 0.00 54 1007.1
20260504234051 71 0 0.0 2.0 0.00 0.00 0.00 53 1007.2
20260504233551 71 0 0.0 2.0 0.00 0.00 0.00 54 1007.4
20260504233059 71 170 0.0 4.0 0.00 0.00 0.00 54 1007.4
20260504232552 71 0 0.0 4.0 0.00 0.00 0.00 54 1007.4
20260504232053 72 359 0.0 4.0 0.00 0.00 0.00 53 1007.5
20260504231558 72 0 0.0 3.0 0.00 0.00 0.00 52 1007.6
20260504231053 72 37 0.0 2.0 0.00 0.00 0.00 51 1007.7
20260504230557 72 210 0.0 2.0 0.00 0.00 0.00 51 1007.7
20260504230054 72 206 0.0 5.0 0.00 0.00 0.00 50 1007.8
20260504225552 73 0 0.0 5.0 0.00 0.00 0.00 49 1007.8
20260504225051 73 0 2.0 5.0 0.00 0.00 0.00 48 1007.8
20260504224557 73 243 2.0 5.0 0.00 0.00 0.00 46 1007.8
20260504224056 73 223 2.0 4.0 0.00 0.00 0.00 48 1007.9
20260504223554 73 136 0.0 2.0 0.00 0.00 0.00 50 1007.7
20260504223107 73 250 0.0 4.0 0.00 0.00 0.00 52 1007.9
20260504222552 73 232 0.0 4.0 0.00 0.00 0.00 51 1007.9
20260504222051 73 198 0.0 6.0 0.00 0.00 0.00 51 1007.8
20260504221558 73 65 0.0 6.0 0.00 0.00 0.00 49 1007.9
20260504221051 74 221 1.0 6.0 0.00 0.00 0.00 51 1007.9
20260504220551 74 208 1.0 6.0 0.00 0.00 0.00 52 1007.9
20260504215555 74 0 0.0 3.0 0.00 0.00 0.00 53 1007.8
20260504215050 74 0 0.0 1.0 0.00 0.00 0.00 53 1008.0
20260504214601 74 0 0.0 1.0 0.00 0.00 0.00 53 1008.1
20260504214057 74 0 0.0 1.0 0.00 0.00 0.00 54 1008.1
20260504213552 74 352 0.0 2.0 0.00 0.00 0.00 52 1008.1
20260504213109 75 0 0.0 2.0 0.00 0.00 0.00 50 1008.2
20260504212552 76 222 0.0 2.0 0.00 0.00 0.00 47 1008.2
20260504212052 77 0 0.0 2.0 0.00 0.00 0.00 53 1008.5
20260504211651 77 150 0.0 2.0 0.00 0.00 0.00 48 1008.5
20260504211051 77 165 0.0 2.0 0.00 0.00 0.00 48 1008.6
20260504210551 77 193 0.0 1.0 0.00 0.00 0.00 48 1008.7
20260504210056 76 157 0.0 1.0 0.00 0.00 0.00 48 1008.8
20260504205554 77 0 0.0 2.0 0.00 0.00 0.00 49 1008.7
20260504205051 77 212 0.0 2.0 0.00 0.00 0.00 46 1008.8
20260504204553 77 219 1.0 2.0 0.00 0.00 0.00 48 1008.7
20260504204053 76 213 1.0 2.0 0.00 0.00 0.00 49 1008.8
20260504203552 76 155 1.0 2.0 0.00 0.00 0.00 46 1009.0
20260504203057 76 284 0.0 2.0 0.00 0.00 0.00 49 1008.9
20260504202553 76 155 1.0 5.0 0.00 0.00 0.00 51 1009.1
20260504202054 75 195 1.0 5.0 0.00 0.00 0.00 56 1009.1
20260504201601 75 56 0.0 3.0 0.00 0.00 0.00 57 1009.1
20260504201052 74 218 0.0 2.0 0.00 0.00 0.00 54 1009.2
20260504200552 74 204 0.0 2.0 0.00 0.00 0.00 58 1009.4
20260504200055 74 283 0.0 3.0 0.00 0.00 0.00 54 1009.4
20260504195551 74 210 1.0 3.0 0.00 0.00 0.00 54 1009.4
20260504195051 74 292 0.0 3.0 0.00 0.00 0.00 55 1009.6
20260504194559 74 260 1.0 3.0 0.00 0.00 0.00 54 1009.6
20260504194051 74 8 1.0 3.0 0.00 0.00 0.00 54 1009.7
20260504193553 74 0 1.0 4.0 0.00 0.00 0.00 52 1009.7
20260504193109 74 161 0.0 4.0 0.00 0.00 0.00 56 1009.8
20260504192551 74 219 1.0 4.0 0.00 0.00 0.00 53 1009.9
20260504192054 74 127 1.0 4.0 0.00 0.00 0.00 56 1010.0
20260504191610 73 191 0.0 2.0 0.00 0.00 0.00 58 1010.1
20260504191052 72 0 0.0 3.0 0.00 0.00 0.00 59 1010.0
20260504190553 72 0 0.0 3.0 0.00 0.00 0.00 59 1010.1
20260504190107 72 203 0.0 4.0 0.00 0.00 0.00 63 1010.2
20260504185551 71 162 1.0 4.0 0.00 0.00 0.00 60 1010.3
20260504185053 70 0 1.0 3.0 0.00 0.00 0.00 62 1010.3
20260504184556 69 0 0.0 2.0 0.00 0.00 0.00 65 1010.4
20260504184054 69 32 0.0 2.0 0.00 0.00 0.00 64 1010.3
20260504183553 69 36 0.0 5.0 0.00 0.00 0.00 64 1010.4
20260504183053 69 120 0.0 5.0 0.00 0.00 0.00 62 1010.5
20260504182551 69 226 0.0 8.0 0.00 0.00 0.00 65 1010.4
20260504182051 70 0 1.0 8.0 0.00 0.00 0.00 63 1010.3
20260504181603 70 212 1.0 5.0 0.00 0.00 0.00 62 1010.2
20260504181051 70 348 0.0 3.0 0.00 0.00 0.00 63 1010.3
20260504180555 69 60 1.0 3.0 0.00 0.00 0.00 63 1010.1
20260504175554 70 139 0.0 4.0 0.00 0.00 0.00 57 1010.1
20260504175052 70 155 0.0 4.0 0.00 0.00 0.00 60 1010.2
20260504174602 70 204 1.0 4.0 0.00 0.00 0.00 57 1010.0
20260504174052 71 200 1.0 7.0 0.00 0.00 0.00 58 1009.9
20260504173551 71 126 1.0 7.0 0.00 0.00 0.00 58 1009.8
20260504173100 71 201 1.0 7.0 0.00 0.00 0.00 59 1009.9
20260504172551 71 176 0.0 4.0 0.00 0.00 0.00 58 1009.9
20260504172055 71 174 1.0 4.0 0.00 0.00 0.00 59 1010.0
20260504171558 70 224 1.0 4.0 0.00 0.00 0.00 62 1009.9
20260504171056 69 144 1.0 3.0 0.00 0.00 0.00 62 1010.0
20260504170558 68 0 0.0 4.0 0.00 0.00 0.00 63 1010.0
20260504151057 64 0 0.0 2.0 0.00 0.00 0.00 67 1010.6
20260504150554 64 217 0.0 2.0 0.00 0.00 0.00 67 1010.8
20260504141053 62 30 0.0 2.0 0.00 0.00 0.00 67 1010.5
20260504140553 62 0 0.0 2.0 0.00 0.00 0.00 64 1010.7
20260504140105 62 231 1.0 2.0 0.00 0.00 0.00 65 1010.7
20260504130553 56 68 0.0 3.0 0.00 0.00 0.00 72 1011.0
20260504120103 54 0 0.0 3.0 0.00 0.00 0.00 72 1011.3
20260504110553 53 0 0.0 2.0 0.00 0.00 0.00 68 1010.9
20260504100554 52 0 0.0 1.0 0.00 0.00 0.00 70 1011.3